User: anonymous   Login
Location: Ladrillo (historical)
(32.8195°N, 117.2231°W)
Time: 01:29:23
(UTC+00:00)
Language:

GOES 2 Rocket - Orbit

View from above orbital plane
View from above orbital plane
View from above satellite
View from above satellite

Ground track
Ground track

The orbit data is extracted from the following two-line orbital elements,

1 10062U 77048B   21018.60180244  .00000175  00000-0  27209-4 0  9999
2 10062  28.4209 334.2519 0736140 327.4259  28.2855 13.36701276122490
Epoch (UTC): 18 January 2021 14:26:35
Eccentricity: 0.0736140
inclination: 28.4209°
perigee height: 569 km
apogee height: 1673 km
right ascension of ascending node: 334.2519°
argument of perigee: 327.4259°
revolutions per day: 13.36701276
mean anomaly at epoch: 28.2855°
orbit number at epoch: 12249

The dashed part of the orbit path shows where the satellite is in the earth's shadow,  

DLR